Find Starlink 35952

NORAD ID: 66520 Int'l Des: 2025-265 Owner: SPXS Country: US Constellation: starlink operational
LEOCIRCULAR

当前视图

正在加载3D地球...

About Starlink 35952

Starlink 35952 (NORAD 66520) is a starlink constellation satellite (v2 mini) launched Nov 19, 2025 by SPXS of US. It operates in LEO, CIRCULAR orbit with a mass of 575.00 kg.

即将过境

Passes for default location (London). Set your location on the main map for personalized predictions.

高度历史

Loading altitude history...

两行轨道根数

1 66520U 25265E 26263.03424367 .00006479 00000-0 24472-3 0 9995
2 66520 42.9979 260.5808 0000760 285.5479 74.5289 15.27581779 46831
Epoch: Sep 20, 2026 • Age: 15 hours

当前状态

高度 491.0 km
远地点 / 近地点 N/A
速度 7.62 km/s
星下点 -30.64°S, 122.44°W
发射日期 Nov 19, 2025
运行时间 0.8 years
类型 internet

技术详情

分类 Payload
质量 575.00 kg
干质量 530.00 kg
长度 0.30 m
跨度 29.00 m
形状 ? Box + pan
制造商 SPXS
平台类型 Starlink V2MO
阶段状态 In Orbit
所有者/国家 SPXS/US

Most Searched